Armadillo
1 44352U 19036P 21105.48241867 .00024969 00000-0 32455-3 0 9998
2 44352 28.5287 175.4895 0308997 332.1453 26.2902 15.17158231 99494
NO-104
1 44354U 19036R 21105.43396885 .00017326 00000-0 23261-3 0 9990
2 44354 28.5291 186.7268 0331401 313.5511 43.8001 15.11934394 99428
NO-103
1 44355U 19036S 21105.43823507 .00035546 00000-0 40768-3 0 9992
2 44355 28.5241 151.2210 0277379 11.4951 349.1825 15.25994680 99776
CP9
1 44360U 19036X 21105.31022002 .00083988 -44021-5 64775-3 0 9990
2 44360 28.5042 100.9665 0215573 95.0114 267.5130 15.45553044100146
Move-IIb
1 44398U 19038N 21105.83461003 .00001502 00000-0 87308-4 0 9991
2 44398 97.5768 70.1521 0024781 161.6231 198.5903 15.13407799 98299
SONATE
1 44400U 19038Q 21105.59744552 .00000533 00000-0 34292-4 0 9998
2 44400 97.5833 69.8378 0025127 162.3923 197.8180 15.12436534 98233
BeeSat 9
1 44412U 19038AC 21105.64949964 .00001331 00000-0 78570-4 0 9995
2 44412 97.5823 70.1182 0022518 166.1944 193.9908 15.13093565 97956
JAISAT-1
1 44419U 19038F 21105.44101374 .00001340 00000-0 78049-4 0 9996
2 44419 97.5827 70.4083 0021419 165.0769 195.1099 15.13577349 98269
LightSail-2
1 44420U 19036AC 21105.35651826 .00011770 00000-0 23700-2 0 9998
2 44420 24.0081 354.9734 0022416 216.1370 143.7607 14.59610382 94326
Taurus 1
1 44530U 19059C 21105.75914320 .00000606 00000-0 18273-3 0 9996
2 44530 98.5502 195.5785 0012383 337.0267 23.0369 14.45988898 84023
Duchifat 3
1 44854U 19089C 21105.39928095 .00000485 00000-0 45225-4 0 9995
2 44854 36.9638 113.5031 0008789 343.0814 16.9634 14.99418425 73636
OPS-SAT
1 44878U 19092F 21105.50406427 .00001464 00000-0 78737-4 0 9990
2 44878 97.4745 289.9238 0014630 34.4272 325.7906 15.16351447 73296
TO-108
1 44881U 19093C 21105.72017255 .00000082 00000-0 17256-4 0 9990
2 44881 97.9266 185.2239 0016146 132.9028 227.3551 14.81438046 71449
FloripaSat 1
1 44885U 19093G 21105.77630532 .00000317 00000-0 46297-4 0 9996
2 44885 97.9282 185.7704 0015763 140.9037 219.3323 14.82249514 71489
RS-44
1 44909U 19096E 21105.53350237 .00000021 00000-0 43774-4 0 9990
2 44909 82.5211 154.6227 0216395 240.0464 117.8997 12.79709582 60794
SwampSat-2
1 45115U 19071E 21105.32814062 .00043919 00000-0 81759-3 0 9998
2 45115 51.6377 329.2505 0007851 85.1257 275.0628 15.48381405 67644
HO-107
1 45119U 19071J 21105.35579609 .00003207 00000-0 10286-3 0 9993
2 45119 51.6431 342.7487 0012080 64.4037 295.8192 15.35356243 67479
Phoenix
1 45258U 98067RB 21105.49326829 .00011627 00000-0 17441-3 0 9993
2 45258 51.6395 283.6860 0005314 23.3089 336.8142 15.55392981 65406
AztechSat-1
1 45261U 98067RE 21105.72183579 .00033253 00000-0 38045-3 0 9998
2 45261 51.6373 275.4634 0005181 37.2235 322.9117 15.61813706 65557
QARMAN
1 45263U 98067RG 21105.76468784 .00024136 00000-0 30835-3 0 9997
2 45263 51.6390 278.7577 0005492 35.5311 324.6047 15.59102004 65551
Quetzal 1
1 45598U 98067RL 21105.47997392 .00020280 00000-0 27687-3 0 9995
2 45598 51.6395 283.6211 0002086 133.5435 226.5731 15.57455772 54738
BY70-2
1 45857U 20042B 21105.77465627 .00001187 00000-0 17618-3 0 9993
2 45857 97.9856 182.1758 0012407 63.3560 296.8908 14.76847531 42299
UPMSat 2
1 46276U 20061E 21105.46679556 .00000701 00000-0 39471-4 0 9997
2 46276 97.4357 180.5030 0001358 147.5768 212.5548 15.16372981 33998
AmicalSat
1 46287U 20061R 21105.77048268 .00000819 00000-0 53715-4 0 9990
2 46287 97.4911 180.4039 0001770 348.0113 12.1075 15.10353015 33882
SALSAT
1 46495U 20068K 21105.63226691 .00001143 00000-0 88390-4 0 9999
2 46495 97.6888 43.5165 0015797 286.6628 73.2864 15.03412153 29890
BY70-3
1 46839U 20079N 21105.75123106 .00002878 00000-0 91894-4 0 9992
2 46839 97.2437 180.8582 0008958 77.0333 79.4965 15.33246679 24595
SPOC
1 46921U 98067RR 21105.23713735 .00011813 00000-0 19200-3 0 9991
2 46921 51.6422 291.0052 0002201 192.8415 167.2519 15.53155965 25023
Bobcat-1
1 46922U 98067RS 21105.76045725 .00016905 00000-0 26013-3 0 9994
2 46922 51.6431 287.7610 0001965 202.6579 157.4325 15.54331893 25071
Neutron-1
1 46923U 98067RT 21105.24766913 .00011906 00000-0 19427-3 0 9994
2 46923 51.6421 291.0735 0001999 206.7900 153.2988 15.53037401 25051
CAPE 3
1 47309U 21002A 21105.52302763 .00001043 00000-0 59119-4 0 9992
2 47309 60.6807 167.1846 0031540 7.9888 352.1694 15.20529297 13318
AO-109
1 47311U 21002C 21105.53634242 .00000707 00000-0 43076-4 0 9997
2 47311 60.6847 166.6892 0026546 10.1174 350.0441 15.21442921 13297
MiTEE 1
1 47314U 21002F 21105.53338070 .00001941 00000-0 93643-4 0 9996
2 47314 60.6840 166.0852 0024752 358.8968 1.2060 15.22742226 13321
ExoCube 2
1 47319U 21002L 21105.62302007 .00000970 00000-0 55101-4 0 9990
2 47319 60.6860 166.5347 0028585 13.8190 346.3672 15.21085875 13270
UVSQ-SAT
1 47438U 21006AB 21105.42331364 .00001005 00000-0 60562-4 0 9999
2 47438 97.4933 167.7601 0011605 321.4232 38.6169 15.12992426 12525
YUSAT 1
1 47439U 21006AC 21105.42484727 .00001057 00000-0 63572-4 0 9993
2 47439 97.4934 167.7597 0011482 321.6572 38.3841 15.12967055 12527
SOMP 2b
1 47445U 21006AJ 21105.43120652 .00000993 00000-0 60118-4 0 9996
2 47445 97.4905 167.7174 0011333 325.7440 34.3059 15.12841109 12525
IDEASSat
1 47458U 21006AX 21105.43842193 .00001011 00000-0 61407-4 0 9995
2 47458 97.4996 167.8092 0010354 324.0364 36.0169 15.12703949 12528
RSP-01
1 47925U 98067SB 21105.80447031 .00011771 00000-0 21170-3 0 9994
2 47925 51.6430 291.0294 0002593 159.5711 200.5382 15.50298060 5059
TAUSAT-1
1 47926U 98067SC 21105.21850080 .00015028 00000-0 26468-3 0 9996
2 47926 51.6428 293.8661 0003870 160.4183 199.6955 15.50647153 4951
Tsuru
1 47927U 98067SD 21105.80472612 .00010793 00000-0 19504-3 0 9990
2 47927 51.6427 291.0310 0002638 156.8537 203.2571 15.50260409 5058
STARS-EC
1 47928U 98067SE 21105.22553620 .00009731 00000-0 17707-3 0 9999
2 47928 51.6425 293.9110 0005800 233.7823 126.2630 15.50185223 4940
Maya-2
1 47929U 98067SF 21105.22388568 .00010544 00000-0 19059-3 0 9993
2 47929 51.6430 293.9019 0002750 152.1822 207.9315 15.50281771 4929
OPUSAT-II
1 47930U 98067SG 21105.80409932 .00015628 00000-0 27786-3 0 9992
2 47930 51.6430 291.0270 0002737 153.3962 206.7168 15.50345654 5051
GuaraniSat-1
1 47931U 98067SH 21105.22362160 .00010833 00000-0 19548-3 0 9990
2 47931 51.6429 293.9004 0002760 151.4739 208.6401 15.50296527 4967
CubeSX-Sirius-HSE
1 47951U 21022V 21105.72247282 .00000352 00000-0 28596-4 0 9990
2 47951 97.5651 9.1234 0022455 160.3131 287.0763 15.05562826 3616
KSU-Cubesat
1 47954U 21022Y 21105.70463530 .00000230 00000-0 20108-4 0 9993
2 47954 97.5641 9.1107 0022058 160.4320 199.7758 15.05671237 3336
Orbicraft-Zorkiy
1 47960U 21022AE 21105.78694791 .00000295 00000-0 24597-4 0 9990
2 47960 97.5667 9.1968 0021934 159.9574 285.1615 15.05659628 3132
STECCO
1 47962U 21022AG 21105.76182642 .00000304 00000-0 24607-4 0 9990
2 47962 97.5617 9.1979 0017196 156.5760 237.3734 15.06637110 2432
DIY-1
1 47963U 21022AH 21105.55264293 .00003032 00000-0 20622-3 0 9994
2 47963 97.5624 8.9996 0020083 155.1644 205.0555 15.06920285 2422
SMOG
1 47964U 21022AJ 21105.76768189 .00000352 00000-0 27661-4 0 9994
2 47964 97.5626 9.2094 0020184 154.4384 291.9839 15.06895115 2436
